,,PA_Meas_PMT16A,,PR_Meas_QMR101_102,,RH_Meas_QMH101,,SR_Meas_QMS101,,TA_Meas_QMH101,,GenWind,,GenWind,
time,status,PA,status,PR,status,RH,status,SR,status,TA,status,DirAvg,status,SpdAvg,
2015-01-06, 07:18:04,VALID,917.51,VALID,0,VALID,95.2622,VALID,89.391,VALID,18.9633,VALID,128,VALID,0,
2015-01-06, 07:19:04,VALID,918.652,VALID,0,VALID,94.8658,VALID,95.3003,VALID,19.0413,VALID,128,VALID,0,
2015-01-06, 07:20:04,VALID,917.708,VALID,0,VALID,93.7604,VALID,100.35,VALID,19.0998,VALID,128,VALID,0,
2015-01-06, 07:21:04,VALID,917.426,VALID,0,VALID,93.5241,VALID,108.945,VALID,19.1778,VALID,128,VALID,0,
2015-01-06, 07:22:04,VALID,917.381,VALID,0,VALID,93.1658,VALID,116.251,VALID,19.2543,VALID,128,VALID,0,
2015-01-06, 07:23:04,VALID,917.414,VALID,0,VALID,92.6474,VALID,118.615,VALID,19.3323,VALID,128,VALID,0,
2015-01-06, 07:24:04,VALID,917.419,VALID,0,VALID,92.3501,VALID,119.045,VALID,19.4688,VALID,128,VALID,0,
2015-01-06, 07:25:04,VALID,917.48,VALID,0,VALID,92.1214,VALID,110.342,VALID,19.5273,VALID,128,VALID,0,
2015-01-06, 07:26:04,VALID,917.59,VALID,0,VALID,91.8469,VALID,105.4,VALID,19.6248,VALID,128,VALID,0,
2015-01-06, 07:27:04,VALID,917.537,VALID,0,VALID,91.603,VALID,109.912,VALID,19.6833,VALID,128,VALID,0,
2015-01-06, 07:28:04,VALID,917.421,VALID,0,VALID,91.3895,VALID,116.789,VALID,19.7628,VALID,128,VALID,0,
2015-01-06, 07:29:04,VALID,917.445,VALID,0,VALID,91.0236,VALID,124.309,VALID,19.7418,VALID,128,VALID,0,
2015-01-06, 07:30:04,VALID,917.405,VALID,0,VALID,91.0083,VALID,133.872,VALID,19.7028,VALID,129,VALID,0,
2015-01-06, 07:31:04,VALID,917.441,VALID,0,VALID,91.4048,VALID,134.731,VALID,19.7223,VALID,131,VALID,0,
2015-01-06, 07:32:04,VALID,917.467,VALID,0,VALID,91.481,VALID,126.888,VALID,19.8198,VALID,131,VALID,0,
2015-01-06, 07:33:04,VALID,917.505,VALID,0,VALID,91.2752,VALID,125.169,VALID,19.9188,VALID,131,VALID,0,
2015-01-06, 07:34:04,VALID,917.531,VALID,0,VALID,90.7949,VALID,130.863,VALID,19.9968,VALID,131,VALID,0,
2015-01-06, 07:35:04,VALID,917.563,VALID,0,VALID,90.5662,VALID,126.566,VALID,20.0553,VALID,131,VALID,0,
2015-01-06, 07:36:04,VALID,917.603,VALID,0,VALID,90.2689,VALID,114.532,VALID,20.0944,VALID,131,VALID,0,
2015-01-06, 07:37:04,VALID,917.672,VALID,0,VALID,90.0478,VALID,110.235,VALID,20.1334,VALID,131,VALID,0,
2015-01-06, 07:38:04,VALID,917.678,VALID,0,VALID,90.1088,VALID,108.73,VALID,20.1123,VALID,131,VALID,0,
2015-01-06, 07:39:04,VALID,917.566,VALID,0,VALID,90.368,VALID,114.64,VALID,20.1139,VALID,130,VALID,0,
2015-01-06, 07:40:04,VALID,917.589,VALID,0,VALID,90.6882,VALID,125.491,VALID,20.0944,VALID,130,VALID,0,
2015-01-06, 07:41:04,VALID,917.617,VALID,0,VALID,91.1456,VALID,139.673,VALID,20.1919,VALID,130,VALID,0,
2015-01-06, 07:42:04,VALID,917.62,VALID,0,VALID,91.2752,VALID,152.889,VALID,20.2699,VALID,131,VALID,0,
2015-01-06, 07:43:04,VALID,917.64,VALID,0,VALID,91.2904,VALID,151.814,VALID,20.4064,VALID,130,VALID,0,
2015-01-06, 07:44:04,VALID,917.674,VALID,0,VALID,90.6195,VALID,151.385,VALID,20.5219,VALID,130,VALID,0,
2015-01-06, 07:45:04,VALID,917.671,VALID,0,VALID,89.9334,VALID,153.533,VALID,20.6795,VALID,131,VALID,0,
2015-01-06, 07:46:04,VALID,917.695,VALID,0,VALID,89.3846,VALID,148.269,VALID,20.8551,VALID,131,VALID,0,
2015-01-06, 07:47:04,VALID,917.701,VALID,0,VALID,89.1025,VALID,139.566,VALID,20.9331,VALID,131,VALID,0,
2015-01-06, 07:48:04,VALID,917.699,VALID,0,VALID,88.3706,VALID,139.244,VALID,21.0096,VALID,131,VALID,0,
2015-01-06, 07:49:04,VALID,917.728,VALID,0,VALID,87.5778,VALID,131.293,VALID,21.0486,VALID,131,VALID,0,
2015-01-06, 07:50:04,VALID,917.748,VALID,0,VALID,87.3491,VALID,127.748,VALID,21.1087,VALID,131,VALID,0,
2015-01-06, 07:51:04,VALID,917.756,VALID,0,VALID,87.0823,VALID,134.087,VALID,21.1657,VALID,131,VALID,0,
2015-01-06, 07:52:04,VALID,917.737,VALID,0,VALID,86.6935,VALID,142.789,VALID,21.1657,VALID,131,VALID,0,
2015-01-06, 07:53:04,VALID,917.742,VALID,0,VALID,86.2818,VALID,151.385,VALID,21.2047,VALID,130,VALID,0,
2015-01-06, 07:54:04,VALID,917.752,VALID,0,VALID,85.7787,VALID,156.757,VALID,21.1461,VALID,131,VALID,0,
2015-01-06, 07:55:04,VALID,917.781,VALID,0,VALID,86.663,VALID,155.575,VALID,21.1657,VALID,131,VALID,0,
2015-01-06, 07:56:04,VALID,917.818,VALID,0,VALID,86.2056,VALID,154.715,VALID,21.1266,VALID,130,VALID,0,
2015-01-06, 07:57:04,VALID,917.84,VALID,0,VALID,86.541,VALID,159.872,VALID,21.1461,VALID,130,VALID,0,
2015-01-06, 07:58:04,VALID,917.895,VALID,0,VALID,86.8688,VALID,169.22,VALID,21.2047,VALID,130,VALID,0,
2015-01-06, 07:59:04,VALID,917.892,VALID,0,VALID,85.2374,VALID,169.65,VALID,21.2226,VALID,131,VALID,0,
2015-01-06, 08:00:04,VALID,917.909,VALID,0,VALID,86.2208,VALID,168.683,VALID,21.3217,VALID,129,VALID,0,
2015-01-06, 08:01:04,VALID,917.911,VALID,0,VALID,86.137,VALID,172.443,VALID,21.3201,VALID,100,VALID,0,
2015-01-06, 08:02:04,VALID,917.915,VALID,0,VALID,84.0939,VALID,176.311,VALID,21.3006,VALID,100,VALID,0,
2015-01-06, 08:03:04,VALID,917.955,VALID,0,VALID,83.3544,VALID,178.567,VALID,21.3006,VALID,100,VALID,0,
2015-01-06, 08:04:04,VALID,917.98,VALID,0,VALID,84.7495,VALID,181.253,VALID,21.3412,VALID,100,VALID,0,
2015-01-06, 08:05:04,VALID,917.98,VALID,0,VALID,84.8867,VALID,184.799,VALID,21.3396,VALID,100,VALID,0,
2015-01-06, 08:06:04,VALID,918.003,VALID,0,VALID,85.2069,VALID,182.435,VALID,21.3981,VALID,100,VALID,0,
2015-01-06, 08:07:04,VALID,918.015,VALID,0,VALID,84.5056,VALID,179.427,VALID,21.4567,VALID,100,VALID,0,
2015-01-06, 08:08:04,VALID,918.078,VALID,0,VALID,82.0508,VALID,176.418,VALID,21.4762,VALID,100,VALID,0,
2015-01-06, 08:09:04,VALID,918.095,VALID,0,VALID,82.8284,VALID,165.782,VALID,21.5152,VALID,101,VALID,0,
2015-01-06, 08:10:04,VALID,918.081,VALID,0,VALID,82.5235,VALID,162.451,VALID,21.5347,VALID,100,VALID,0,
2015-01-06, 08:11:04,VALID,918.093,VALID,0,VALID,83.1029,VALID,182.22,VALID,21.6128,VALID,101,VALID,0,
2015-01-06, 08:12:04,VALID,918.092,VALID,0,VALID,84.2235,VALID,202.849,VALID,21.6924,VALID,100,VALID,0,
2015-01-06, 08:13:04,VALID,918.108,VALID,0,VALID,83.85,VALID,202.097,VALID,21.6908,VALID,101,VALID,0,
2015-01-06, 08:14:04,VALID,918.149,VALID,0,VALID,83.6365,VALID,193.824,VALID,21.7298,VALID,100,VALID,0,
2015-01-06, 08:15:04,VALID,918.162,VALID,0,VALID,81.967,VALID,208.006,VALID,21.6908,VALID,100,VALID,0,
2015-01-06, 08:16:04,VALID,918.154,VALID,0,VALID,81.4333,VALID,229.279,VALID,21.6518,VALID,100,VALID,0,
2015-01-06, 08:17:04,VALID,918.127,VALID,0,VALID,81.258,VALID,256.032,VALID,21.6501,VALID,76,VALID,0,
2015-01-06, 08:18:04,VALID,918.112,VALID,0,VALID,82.2185,VALID,250.983,VALID,21.6924,VALID,76,VALID,0,
2015-01-06, 08:19:04,VALID,918.082,VALID,0,VALID,81.9898,VALID,268.388,VALID,21.6729,VALID,42,VALID,0,
2015-01-06, 08:20:04,VALID,918.08,VALID,0,VALID,81.014,VALID,271.289,VALID,21.6924,VALID,42,VALID,0,
2015-01-06, 08:21:04,VALID,918.052,VALID,0,VALID,83.2706,VALID,302.017,VALID,21.6924,VALID,42,VALID,0,
2015-01-06, 08:22:04,VALID,918.038,VALID,0,VALID,83.141,VALID,306.959,VALID,21.79,VALID,51,VALID,0,
2015-01-06, 08:23:04,VALID,918.049,VALID,0,VALID,83.0342,VALID,286.546,VALID,21.9266,VALID,18,VALID,0,
2015-01-06, 08:24:04,VALID,918.024,VALID,0,VALID,84.0482,VALID,277.628,VALID,22.0827,VALID,15,VALID,0,
2015-01-06, 08:25:04,VALID,918.039,VALID,0,VALID,82.028,VALID,277.628,VALID,22.2176,VALID,350,VALID,0.00976563,
2015-01-06, 08:26:04,VALID,918.045,VALID,0,VALID,81.5401,VALID,273.867,VALID,22.2567,VALID,1,VALID,0,
2015-01-06, 08:27:04,VALID,918.055,VALID,0,VALID,82.2872,VALID,313.191,VALID,22.3737,VALID,55,VALID,0.421094,
2015-01-06, 08:28:04,VALID,918.092,VALID,0,VALID,82.9199,VALID,314.695,VALID,22.4908,VALID,38,VALID,0,
2015-01-06, 08:29:04,VALID,918.095,VALID,0,VALID,80.2822,VALID,339.944,VALID,22.5689,VALID,38,VALID,0,
2015-01-06, 08:30:04,VALID,918.115,VALID,0,VALID,80.0764,VALID,352.085,VALID,22.725,VALID,38,VALID,0,
2015-01-06, 08:31:04,VALID,918.087,VALID,0,VALID,79.0472,VALID,354.233,VALID,22.9397,VALID,38,VALID,0,
2015-01-06, 08:32:04,VALID,918.092,VALID,0,VALID,78.1705,VALID,297.182,VALID,23.0568,VALID,25,VALID,0,
2015-01-06, 08:33:04,VALID,918.071,VALID,0,VALID,76.4934,VALID,319.745,VALID,22.9592,VALID,25,VALID,0,
2015-01-06, 08:34:04,VALID,918.078,VALID,0,VALID,77.2023,VALID,337.473,VALID,23.0568,VALID,25,VALID,0,
2015-01-06, 08:35:04,VALID,918.096,VALID,0,VALID,77.5301,VALID,298.257,VALID,23.1935,VALID,47,VALID,0,
2015-01-06, 08:36:04,VALID,918.083,VALID,0,VALID,77.6826,VALID,300.405,VALID,23.213,VALID,47,VALID,0,
2015-01-06, 08:37:04,VALID,918.102,VALID,0,VALID,77.5301,VALID,341.448,VALID,23.0746,VALID,336,VALID,0,
2015-01-06, 08:38:04,VALID,918.081,VALID,0,VALID,77.5301,VALID,309.86,VALID,22.9592,VALID,335,VALID,0,
2015-01-06, 08:39:04,VALID,918.101,VALID,0,VALID,78.018,VALID,313.943,VALID,22.8404,VALID,336,VALID,0,
2015-01-06, 08:40:04,VALID,918.074,VALID,0,VALID,78.6279,VALID,293.422,VALID,22.8404,VALID,336,VALID,0,
2015-01-06, 08:41:04,VALID,918.08,VALID,0,VALID,77.2862,VALID,307.067,VALID,22.9185,VALID,83,VALID,0,
2015-01-06, 08:42:04,VALID,918.093,VALID,0,VALID,77.4463,VALID,260.33,VALID,22.977,VALID,82,VALID,0,
2015-01-06, 08:43:04,VALID,918.085,VALID,0,VALID,77.3243,VALID,293.422,VALID,23.0356,VALID,83,VALID,0,
2015-01-06, 08:44:04,VALID,918.141,VALID,0,VALID,77.2481,VALID,292.992,VALID,23.2112,VALID,83,VALID,0,
2015-01-06, 08:45:04,VALID,918.14,VALID,0,VALID,77.0575,VALID,302.662,VALID,23.2502,VALID,74,VALID,0,
2015-01-06, 08:46:04,VALID,918.136,VALID,0,VALID,75.6929,VALID,317.059,VALID,23.2698,VALID,6,VALID,0,
2015-01-06, 08:47:04,VALID,918.12,VALID,0,VALID,76.3638,VALID,305.025,VALID,23.2502,VALID,17,VALID,0.0164062,
2015-01-06, 08:48:04,VALID,918.114,VALID,0,VALID,75.7539,VALID,307.389,VALID,23.213,VALID,14,VALID,0,
2015-01-06, 08:49:04,VALID,918.112,VALID,0,VALID,77.7207,VALID,284.719,VALID,23.1331,VALID,15,VALID,0,
2015-01-06, 08:50:04,VALID,918.164,VALID,0,VALID,77.1642,VALID,289.554,VALID,23.1136,VALID,337,VALID,0.0015625,
2015-01-06, 08:51:04,VALID,918.175,VALID,0,VALID,77.4234,VALID,286.653,VALID,23.0373,VALID,347,VALID,0,
2015-01-06, 08:52:04,VALID,918.171,VALID,0,VALID,77.5454,VALID,308.464,VALID,23.0941,VALID,346,VALID,0,
2015-01-06, 08:53:04,VALID,918.165,VALID,0,VALID,77.21,VALID,304.811,VALID,23.1935,VALID,328,VALID,0.00429688,
2015-01-06, 08:54:04,VALID,918.138,VALID,0,VALID,75.9902,VALID,277.521,VALID,23.1935,VALID,327,VALID,0,
2015-01-06, 08:55:04,VALID,918.142,VALID,0,VALID,77.5835,VALID,305.455,VALID,23.0356,VALID,314,VALID,0,
2015-01-06, 08:56:04,VALID,918.161,VALID,0,VALID,76.2113,VALID,292.562,VALID,22.9185,VALID,289,VALID,0,
2015-01-06, 08:57:04,VALID,918.132,VALID,0,VALID,76.7144,VALID,291.81,VALID,22.8014,VALID,290,VALID,0,
2015-01-06, 08:58:04,VALID,918.133,VALID,0,VALID,78.4297,VALID,302.662,VALID,22.7428,VALID,329,VALID,0,
2015-01-06, 08:59:04,VALID,918.12,VALID,0,VALID,78.1858,VALID,313.084,VALID,22.7038,VALID,310,VALID,0,
2015-01-06, 09:00:04,VALID,918.094,VALID,0,VALID,79.3521,VALID,339.299,VALID,22.7233,VALID,355,VALID,0,
2015-01-06, 09:01:04,VALID,918.091,VALID,0,VALID,79.2073,VALID,342.737,VALID,22.7836,VALID,355,VALID,0,
2015-01-06, 09:02:04,VALID,918.103,VALID,0,VALID,79.4284,VALID,383.457,VALID,22.9007,VALID,356,VALID,0,
2015-01-06, 09:03:04,VALID,918.091,VALID,0,VALID,79.4817,VALID,411.715,VALID,23.0373,VALID,356,VALID,0,
2015-01-06, 09:04:04,VALID,918.081,VALID,0,VALID,78.1171,VALID,418.268,VALID,23.0746,VALID,23,VALID,0,
2015-01-06, 09:05:04,VALID,918.083,VALID,0,VALID,78.4907,VALID,423.426,VALID,23.1527,VALID,27,VALID,0,
2015-01-06, 09:06:04,VALID,918.087,VALID,0,VALID,78.5669,VALID,434.599,VALID,23.3088,VALID,30,VALID,0,
2015-01-06, 09:07:04,VALID,918.069,VALID,0,VALID,76.4629,VALID,438.575,VALID,23.6016,VALID,358,VALID,0,
2015-01-06, 09:08:04,VALID,918.056,VALID,0,VALID,75.1669,VALID,420.31,VALID,23.6797,VALID,280,VALID,0,
2015-01-06, 09:09:04,VALID,918.038,VALID,0,VALID,73.9243,VALID,428.583,VALID,23.8944,VALID,282,VALID,0,
2015-01-06, 09:10:04,VALID,918.042,VALID,0,VALID,75.4566,VALID,402.045,VALID,24.0311,VALID,3,VALID,0,
2015-01-06, 09:11:04,VALID,918.064,VALID,0,VALID,75.0297,VALID,402.367,VALID,24.0311,VALID,32,VALID,0.925781,
2015-01-06, 09:12:04,VALID,918.07,VALID,0,VALID,74.4655,VALID,405.805,VALID,24.1092,VALID,18,VALID,0,
2015-01-06, 09:13:04,VALID,918.047,VALID,0,VALID,73.9395,VALID,405.483,VALID,24.0097,VALID,308,VALID,0,
2015-01-06, 09:14:04,VALID,918.029,VALID,0,VALID,75.4489,VALID,414.186,VALID,24.0292,VALID,2,VALID,0,
2015-01-06, 09:15:04,VALID,918.059,VALID,0,VALID,76.3104,VALID,424.285,VALID,24.1659,VALID,2,VALID,0.00351562,
2015-01-06, 09:16:04,VALID,918.064,VALID,0,VALID,72.4834,VALID,408.491,VALID,24.1464,VALID,302,VALID,0.735937,
2015-01-06, 09:17:04,VALID,918.084,VALID,0,VALID,73.5431,VALID,401.293,VALID,23.8731,VALID,299,VALID,0.0289063,
2015-01-06, 09:18:04,VALID,918.069,VALID,0,VALID,75.8759,VALID,386.251,VALID,23.8145,VALID,301,VALID,0,
2015-01-06, 09:19:04,VALID,918.104,VALID,0,VALID,76.6839,VALID,370.242,VALID,23.9512,VALID,302,VALID,0,
2015-01-06, 09:20:04,VALID,918.068,VALID,0,VALID,74.1377,VALID,368.631,VALID,24.1269,VALID,301,VALID,0.141797,
2015-01-06, 09:21:04,VALID,918.039,VALID,0,VALID,72.552,VALID,349.291,VALID,23.992,VALID,284,VALID,0.151562,
2015-01-06, 09:22:04,VALID,918.047,VALID,0,VALID,74.8086,VALID,336.506,VALID,23.9725,VALID,360,VALID,0.10625,
2015-01-06, 09:23:04,VALID,918.037,VALID,0,VALID,76.4552,VALID,306.207,VALID,24.0097,VALID,353,VALID,0.0257812,
2015-01-06, 09:24:04,VALID,917.994,VALID,0,VALID,75.975,VALID,267.636,VALID,24.0311,VALID,10,VALID,0.635938,
2015-01-06, 09:25:04,VALID,917.993,VALID,0,VALID,76.2494,VALID,228.635,VALID,24.0311,VALID,17,VALID,0.885938,
2015-01-06, 09:26:04,VALID,918,VALID,0,VALID,74.3512,VALID,203.386,VALID,24.0701,VALID,21,VALID,0.329297,
2015-01-06, 09:27:04,VALID,917.993,VALID,0,VALID,74.8924,VALID,184.906,VALID,24.0896,VALID,24,VALID,1.07344,
2015-01-06, 09:28:04,VALID,917.959,VALID,0,VALID,73.8328,VALID,172.658,VALID,24.0311,VALID,345,VALID,1.20938,
2015-01-06, 09:29:04,VALID,917.951,VALID,0,VALID,75.6243,VALID,165.459,VALID,23.9316,VALID,356,VALID,0.614844,
2015-01-06, 09:30:04,VALID,917.918,VALID,0,VALID,75.3727,VALID,159.335,VALID,23.8554,VALID,24,VALID,1.3207,
2015-01-06, 09:31:04,VALID,917.915,VALID,0,VALID,77.3319,VALID,157.294,VALID,23.8163,VALID,16,VALID,0.998438,
2015-01-06, 09:32:04,VALID,917.877,VALID,0,VALID,77.9799,VALID,157.509,VALID,23.8358,VALID,22,VALID,1.12227,
2015-01-06, 09:33:04,VALID,917.894,VALID,0,VALID,76.5162,VALID,158.905,VALID,23.7364,VALID,345,VALID,0.876953,
2015-01-06, 09:34:04,VALID,917.891,VALID,0,VALID,79.6723,VALID,160.41,VALID,23.6388,VALID,360,VALID,0.370313,
2015-01-06, 09:35:04,VALID,917.885,VALID,0,VALID,78.1858,VALID,160.517,VALID,23.7364,VALID,358,VALID,0,
2015-01-06, 09:36:04,VALID,917.912,VALID,0,VALID,76.9355,VALID,160.195,VALID,23.8536,VALID,4,VALID,1.12578,
2015-01-06, 09:37:04,VALID,917.921,VALID,0,VALID,76.966,VALID,159.765,VALID,23.8322,VALID,1,VALID,0.470313,
2015-01-06, 09:38:04,VALID,917.908,VALID,0,VALID,76.4552,VALID,160.625,VALID,23.8145,VALID,8,VALID,0.852734,
2015-01-06, 09:39:04,VALID,917.912,VALID,0,VALID,77.7893,VALID,160.625,VALID,23.7755,VALID,349,VALID,0,
2015-01-06, 09:40:04,VALID,917.912,VALID,0,VALID,76.9508,VALID,159.765,VALID,23.6974,VALID,31,VALID,2.06133,
2015-01-06, 09:41:04,VALID,917.926,VALID,0,VALID,78.3458,VALID,160.195,VALID,23.6797,VALID,11,VALID,0.801953,
2015-01-06, 09:42:04,VALID,917.907,VALID,0,VALID,78.2544,VALID,160.302,VALID,23.795,VALID,21,VALID,0,
2015-01-06, 09:43:04,VALID,917.936,VALID,0,VALID,76.6153,VALID,160.947,VALID,24.0115,VALID,4,VALID,0.0417969,
2015-01-06, 09:44:04,VALID,917.925,VALID,0,VALID,77.0194,VALID,162.236,VALID,24.1073,VALID,8,VALID,0,
2015-01-06, 09:45:04,VALID,917.924,VALID,0,VALID,74.5036,VALID,164.922,VALID,24.244,VALID,355,VALID,0,
2015-01-06, 09:46:04,VALID,917.893,VALID,0,VALID,72.6816,VALID,169.22,VALID,24.2245,VALID,337,VALID,0,
2015-01-06, 09:47:04,VALID,917.908,VALID,0,VALID,74.2673,VALID,178.997,VALID,24.1464,VALID,344,VALID,0,
2015-01-06, 09:48:04,VALID,917.913,VALID,0,VALID,76.0588,VALID,198.551,VALID,24.2049,VALID,10,VALID,0.00273437,
2015-01-06, 09:49:04,VALID,917.927,VALID,0,VALID,76.6001,VALID,240.883,VALID,24.3416,VALID,351,VALID,0.0875,
2015-01-06, 09:50:04,VALID,917.934,VALID,0,VALID,73.6574,VALID,295.141,VALID,24.4002,VALID,310,VALID,0,
2015-01-06, 09:51:04,VALID,917.949,VALID,0,VALID,74.214,VALID,265.057,VALID,24.4978,VALID,300,VALID,0.484375,
2015-01-06, 09:52:04,VALID,917.922,VALID,0,VALID,74.0767,VALID,436.963,VALID,24.6149,VALID,2,VALID,0.198437,
2015-01-06, 09:53:04,VALID,917.95,VALID,0,VALID,74.0767,VALID,518.618,VALID,24.7126,VALID,315,VALID,0,
2015-01-06, 09:54:04,VALID,917.929,VALID,0,VALID,73.4287,VALID,562.454,VALID,24.693,VALID,11,VALID,0.0203125,
2015-01-06, 09:55:04,VALID,917.985,VALID,0,VALID,74.8162,VALID,563.636,VALID,24.7497,VALID,333,VALID,0,
2015-01-06, 09:56:04,VALID,917.972,VALID,0,VALID,74.2292,VALID,584.587,VALID,24.8688,VALID,337,VALID,0,
2015-01-06, 09:57:04,VALID,917.958,VALID,0,VALID,73.3982,VALID,608.869,VALID,25.0055,VALID,22,VALID,0,
2015-01-06, 09:58:04,VALID,917.947,VALID,0,VALID,72.209,VALID,633.688,VALID,25.1012,VALID,343,VALID,0.00117188,
2015-01-06, 09:59:04,VALID,917.949,VALID,0,VALID,71.4924,VALID,642.068,VALID,25.2183,VALID,349,VALID,0.312891,
2015-01-06, 10:00:04,VALID,917.934,VALID,0,VALID,70.3184,VALID,667.424,VALID,25.2574,VALID,349,VALID,0.230078,
2015-01-06, 10:01:04,VALID,917.994,VALID,0,VALID,71.8659,VALID,660.871,VALID,25.316,VALID,1,VALID,0.119531,
2015-01-06, 10:02:04,VALID,917.963,VALID,0,VALID,70.4556,VALID,672.582,VALID,25.4136,VALID,334,VALID,0.367969,
2015-01-06, 10:03:04,VALID,917.964,VALID,0,VALID,71.0807,VALID,667.317,VALID,25.5113,VALID,7,VALID,0.00859375,
2015-01-06, 10:04:04,VALID,917.971,VALID,0,VALID,70.9206,VALID,681.069,VALID,25.5503,VALID,25,VALID,1.05977,
2015-01-06, 10:05:04,VALID,918.013,VALID,0,VALID,70.1583,VALID,694.822,VALID,25.5308,VALID,67,VALID,0.0691406,
2015-01-06, 10:06:04,VALID,917.992,VALID,0,VALID,67.2462,VALID,689.45,VALID,25.7066,VALID,16,VALID,0.196875,
2015-01-06, 10:07:04,VALID,917.968,VALID,0,VALID,70.0516,VALID,744.46,VALID,25.7847,VALID,60,VALID,0.596875,
2015-01-06, 10:08:04,VALID,918.003,VALID,0,VALID,69.03,VALID,790.337,VALID,25.7651,VALID,326,VALID,0.474219,
2015-01-06, 10:09:04,VALID,917.987,VALID,0,VALID,67.9856,VALID,237.767,VALID,25.7261,VALID,310,VALID,0.0121094,
2015-01-06, 10:10:04,VALID,918.003,VALID,0,VALID,70.1126,VALID,266.132,VALID,25.607,VALID,326,VALID,0,
2015-01-06, 10:11:04,VALID,918.005,VALID,0,VALID,69.2359,VALID,609.621,VALID,25.4136,VALID,291,VALID,0.0839844,
2015-01-06, 10:12:04,VALID,917.958,VALID,0,VALID,69.4188,VALID,460.708,VALID,25.2984,VALID,290,VALID,0.0402344,
2015-01-06, 10:13:04,VALID,917.977,VALID,0,VALID,70.57,VALID,406.88,VALID,25.2574,VALID,291,VALID,0,
2015-01-06, 10:14:04,VALID,917.961,VALID,0,VALID,69.8839,VALID,274.512,VALID,25.2183,VALID,196,VALID,0.127734,
2015-01-06, 10:15:04,VALID,917.915,VALID,0,VALID,73.2077,VALID,297.182,VALID,25.316,VALID,29,VALID,0.0421875,
2015-01-06, 10:16:04,VALID,917.933,VALID,0,VALID,71.8507,VALID,752.41,VALID,25.3941,VALID,33,VALID,0.207031,
2015-01-06, 10:17:04,VALID,917.933,VALID,0,VALID,71.9117,VALID,448.567,VALID,25.5308,VALID,4,VALID,0,
2015-01-06, 10:18:04,VALID,917.933,VALID,0,VALID,68.8166,VALID,264.52,VALID,25.687,VALID,7,VALID,0,
2015-01-06, 10:19:04,VALID,917.95,VALID,0,VALID,70.5166,VALID,245.288,VALID,25.7847,VALID,5,VALID,0,
2015-01-06, 10:20:04,VALID,917.941,VALID,0,VALID,70.3641,VALID,261.082,VALID,25.8042,VALID,37,VALID,0.192578,
2015-01-06, 10:21:04,VALID,917.976,VALID,0,VALID,68.7556,VALID,282.14,VALID,25.8042,VALID,33,VALID,0,
2015-01-06, 10:22:04,VALID,917.987,VALID,0,VALID,69.983,VALID,581.364,VALID,25.8042,VALID,32,VALID,0,
2015-01-06, 10:23:04,VALID,917.963,VALID,0,VALID,69.739,VALID,447.063,VALID,25.8413,VALID,11,VALID,0.151562,
2015-01-06, 10:24:04,VALID,917.958,VALID,0,VALID,69.9982,VALID,886.282,VALID,25.9214,VALID,5,VALID,0.0183594,
2015-01-06, 10:25:04,VALID,917.982,VALID,0,VALID,70.2879,VALID,841.587,VALID,25.9409,VALID,301,VALID,0,
2015-01-06, 10:26:04,VALID,917.997,VALID,0,VALID,69.274,VALID,261.727,VALID,26.1558,VALID,301,VALID,0,
2015-01-06, 10:27:04,VALID,918.003,VALID,0,VALID,68.1533,VALID,272.471,VALID,26.2339,VALID,301,VALID,0,
2015-01-06, 10:28:04,VALID,917.965,VALID,0,VALID,67.4215,VALID,307.389,VALID,26.1753,VALID,264,VALID,0,
2015-01-06, 10:29:04,VALID,917.98,VALID,0,VALID,69.0453,VALID,478.543,VALID,26.1167,VALID,321,VALID,0.421875,
2015-01-06, 10:30:04,VALID,917.963,VALID,0,VALID,70.9359,VALID,326.729,VALID,25.98,VALID,348,VALID,0.260938,
2015-01-06, 10:31:04,VALID,917.942,VALID,0,VALID,70.2574,VALID,311.15,VALID,25.8237,VALID,12,VALID,0,
2015-01-06, 10:32:04,VALID,917.964,VALID,0,VALID,70.2498,VALID,357.994,VALID,25.648,VALID,275,VALID,0,
2015-01-06, 10:33:04,VALID,917.957,VALID,0,VALID,72.3157,VALID,248.297,VALID,25.687,VALID,330,VALID,0,
2015-01-06, 10:34:04,VALID,918.005,VALID,0,VALID,69.8534,VALID,253.669,VALID,25.5894,VALID,276,VALID,0.677734,
2015-01-06, 10:35:04,VALID,918.016,VALID,0,VALID,73.2839,VALID,253.131,VALID,25.236,VALID,5,VALID,1.02031,
2015-01-06, 10:36:04,VALID,918.015,VALID,0,VALID,74.4274,VALID,242.495,VALID,25.0212,VALID,15,VALID,0.165625,
2015-01-06, 10:37:04,VALID,918.033,VALID,0,VALID,73.5507,VALID,245.396,VALID,24.904,VALID,358,VALID,0.0519531,
2015-01-06, 10:38:04,VALID,918.041,VALID,0,VALID,72.6893,VALID,272.901,VALID,24.8474,VALID,351,VALID,0.383594,
2015-01-06, 10:39:04,VALID,918.013,VALID,0,VALID,75.3422,VALID,824.289,VALID,24.6912,VALID,6,VALID,1.21328,
2015-01-06, 10:40:04,VALID,917.996,VALID,0,VALID,75.1821,VALID,816.553,VALID,24.7888,VALID,34,VALID,1.01328,
2015-01-06, 10:41:04,VALID,917.944,VALID,0,VALID,74.153,VALID,635.085,VALID,25.0036,VALID,319,VALID,0.110156,
2015-01-06, 10:42:04,VALID,917.926,VALID,0,VALID,74.6561,VALID,924.101,VALID,24.984,VALID,4,VALID,1.89805,
2015-01-06, 10:43:04,VALID,917.929,VALID,0,VALID,74.6256,VALID,320.819,VALID,25.316,VALID,9,VALID,0,
2015-01-06, 10:44:04,VALID,917.918,VALID,0,VALID,70.3565,VALID,289.339,VALID,25.4722,VALID,59,VALID,1.43555,
2015-01-06, 10:45:04,VALID,917.943,VALID,0,VALID,72.7884,VALID,259.793,VALID,25.3922,VALID,21,VALID,1.20391,
2015-01-06, 10:46:04,VALID,917.96,VALID,0,VALID,72.2624,VALID,225.089,VALID,25.1383,VALID,33,VALID,2.56797,
2015-01-06, 10:47:04,VALID,917.939,VALID,0,VALID,74.5875,VALID,186.518,VALID,24.9431,VALID,63,VALID,0.659375,
2015-01-06, 10:48:04,VALID,917.938,VALID,0,VALID,74.4579,VALID,169.005,VALID,24.9645,VALID,14,VALID,2.79063,
2015-01-06, 10:49:04,VALID,917.91,VALID,0,VALID,73.4287,VALID,171.476,VALID,24.8278,VALID,21,VALID,1.3625,
2015-01-06, 10:50:04,VALID,917.952,VALID,0,VALID,75.0754,VALID,201.237,VALID,24.6307,VALID,47,VALID,1.0832,
2015-01-06, 10:51:04,VALID,917.973,VALID,0,VALID,74.9306,VALID,223.8,VALID,24.5935,VALID,15,VALID,0.0722656,
2015-01-06, 10:52:04,VALID,917.948,VALID,0,VALID,75.6624,VALID,387.11,VALID,24.5155,VALID,153,VALID,0,
2015-01-06, 10:53:04,VALID,917.967,VALID,0,VALID,77.6369,VALID,836.537,VALID,24.6326,VALID,111,VALID,0,
2015-01-06, 10:54:04,VALID,917.956,VALID,0,VALID,74.9382,VALID,442.765,VALID,24.865,VALID,98,VALID,0,
2015-01-06, 10:55:04,VALID,917.979,VALID,0,VALID,72.3233,VALID,354.448,VALID,25.1793,VALID,359,VALID,0,
2015-01-06, 10:56:04,VALID,918.019,VALID,0,VALID,72.6359,VALID,523.238,VALID,25.3141,VALID,279,VALID,0.00078125,
2015-01-06, 10:57:04,VALID,918.069,VALID,0,VALID,72.4148,VALID,739.732,VALID,25.1188,VALID,253,VALID,0.414453,
2015-01-06, 10:58:04,VALID,918.073,VALID,0,VALID,74.2368,VALID,929.903,VALID,24.9821,VALID,253,VALID,0,
2015-01-06, 10:59:04,VALID,918.074,VALID,0,VALID,73.3449,VALID,373.251,VALID,25.1383,VALID,188,VALID,0,
2015-01-06, 11:00:04,VALID,918.069,VALID,0,VALID,74.9229,VALID,992.541,VALID,25.4136,VALID,41,VALID,1.86836,